Regional Weather Roundup
Issued by NWS Portland, ME

Home | Current Version | Previous Version | Text Only | Print | Product List | Glossary On
Versions: 1 2 3 4 5 6 7 8 9 10 11 12 13 14 15 16 17 18 19 20 21 22 23 24 25 26 27 28 29 30 31 32 33 34 35 36 37 38 39 40 41 42 43 44 45 46 47 48 49 50
000
ASUS41 KGYX 290405
RWRGYX
WEATHER ROUNDUP FOR MAINE AND NEW HAMPSHIRE
NATIONAL WEATHER SERVICE GRAY ME
1200 AM EDT FRI APR 29 2016

MEZ002-005-006-010-012-015-018-020-021-024-026-027-029-290500-
MAINE

CITY           SKY/WX    TMP DP  RH WIND       PRES   REMARKS
PORTLAND       PTCLDY    37  29  72 N5        30.16R
SANFORD        CLOUDY    30  27  86 CALM      30.14S
BAR HARBOR     PTCLDY    31  18  58 N3        30.19R
WISCASSET      CLEAR     34  29  82 VRB3      30.18R
ROCKLAND       CLEAR     37  24  59 VRB3      30.17S
FRYEBURG       CLOUDY    37  14  38 NE5       30.16R
LEWISTONAUBURN CLEAR     37  16  41 NE6       30.16R
AUGUSTA        CLEAR     36  13  38 NE8       30.18R
WATERVILLE     CLEAR     33  13  43 N7        30.15S
BANGOR         PTCLDY    36  13  38 N5        30.19R
GREENVILLE       N/A     28  12  51 N6        30.11S
MILLINOCKET    CLEAR     27  11  51 NE5       30.19R
HOULTON        CLEAR     20  13  74 VRB3      30.16R
PRESQUE ISLE   CLEAR     22  12  65 CALM      30.16S
FRENCHVILLE    CLEAR     27   7  42 NW12      30.12S WCI  17
CARIBOU        CLEAR     25   9  50 W5        30.14S
$$

NHZ002-005-008-009-011-012-014-290500-
NEW HAMPSHIRE

CITY           SKY/WX    TMP DP  RH WIND       PRES   REMARKS
PORTSMOUTH     PTCLDY    43  36  78 E6        30.10R
ROCHESTER      CLOUDY    37  30  75 N3        30.12R
NASHUA         MOCLDY    45  31  58 CALM      30.10R
MANCHESTER     MOCLDY    44  29  55 N5        30.09R
CONCORD        PTCLDY    40  29  64 NE7       30.11R
LACONIA        CLOUDY    39  27  60 NE8       30.13R
PLYMOUTH       FAIR      31  27  85 CALM      30.13R
BERLIN         CLOUDY    25  17  72 CALM      30.15R
WHITEFIELD     CLEAR     30  17  58 CALM      30.14R
JAFFREY        MOCLDY    43  27  53 CALM      30.08R
KEENE          CLOUDY    46  27  46 NE7       30.09R
LEBANON        CLEAR     36  19  50 N5        30.13R
MT WASHINGTON  MOCLDY    18   3  53 SW12        N/A  WCI   5
$$

VTZ005-007-008-290500-
VERMONT

CITY           SKY/WX    TMP DP  RH WIND       PRES   REMARKS
ST JOHNSBURY     N/A     32  18  56 MISG      30.14S
MONTPELIER     FAIR      31  15  52 NW3       30.17F
BURLINGTON     FAIR      37  15  40 CALM      30.15F
$$

MAZ007-012-024-CTZ003-RIZ002-NYZ038-NYZ072-290500-
SOUTHERN NEW ENGLAND AND NY

CITY           SKY/WX    TMP DP  RH WIND       PRES   REMARKS
BOSTON         CLOUDY    46  34  62 S9        30.11R
WORCESTER      CLOUDY    43  29  57 S3        30.07R
NANTUCKET      CLOUDY    46  33  60 E6        30.11S
PROVIDENCE     CLOUDY    46  34  62 S7        30.10R
HARTFORD       CLOUDY    47  36  65 S13       30.06R
ALBANY         MOCLDY    41  18  39 N14       30.08S
NEW YORK CITY  CLOUDY    49  38  65 VRB3      30.05F
$$

ANZ081-ANZ082-ANZ150-NHZ014-MEZ023>029-290500-
COASTAL MARINE OBSERVATIONS

STATION/POSITION TIME  TEMP    WIND        PRES    WAVE
                       AIR SEA DIR/SP/G            HT/PER
                 (UTC) (F)     (DEG/KT/KT) (MB)    (FT/S)
MOUNT DESERT ROC 0400   41     320/ 14/ 15 1021.6R
MATINICUS ROCK   0300   42     250/  3/  3 1021.1R
ISLE OF SHOALS   0300   44     140/ 14/ 15 1018.9R
CASHES LEDGE BUO 0350   43 44  170/  4/  6 1020.6S   3/ 8
$$

.............KEY..............
   WCI - WIND CHILL
   TC  - TEMPERATURE IN CELSIUS
   VSB - VISIBILITY IN MILES
   HX  - HEAT INDEX
   FAIR- INDICATES FEW OR NO CLOUDS BELOW 12,000 FT, WITH NO
         SIGNIFICANT WEATHER AND/OR OBSTRUCTIONS TO VISIBILITY.






USA.gov is the U.S. government's official web portal to all federal, state and local government web resources and services.